Regional Weather Roundup
Issued by NWS

Home | Current Version | Previous Version | Text Only | Print | Product List | Glossary Off
Versions: 1 2 3 4 5 6 7 8 9 10 11 12 13 14 15 16 17 18 19 20 21 22 23 24 25 26 27 28 29 30 31 32 33 34 35 36 37 38 39 40 41 42 43 44 45 46 47 48 49 50

000
ASUS43 KLMK 271410
RWRKY
KENTUCKY REGIONAL WEATHER ROUNDUP
NATIONAL WEATHER SERVICE LOUISVILLE KY
1000 AM EDT FRI MAR 27 2015

NOTE "FAIR" INDICATES FEW OR NO CLOUDS BELOW 12,000 FEET
WITH NO SIGNIFICANT WEATHER AND/OR OBSTRUCTIONS TO VISIBILITY.

KYZ001>023-026-027-061>063-070>075-271500-
WESTERN AND SOUTH CENTRAL KENTUCKY

CITY           SKY/WX    TMP DP  RH WIND       PRES   REMARKS
PADUCAH        CLOUDY    39  32  76 N12       30.06S WCI  32
HENDERSON      PTSUNNY   37  30  75 N7        30.05S WCI  32
OWENSBORO      PTSUNNY   38  30  73 N8        30.05R WCI  32
HOPKINSVILLE   CLOUDY    37  34  89 N6        30.02S WCI  33
BOWLING GREEN  PTSUNNY   39  32  76 NW7       30.02R WCI  34
GLASGOW        MOSUNNY   40  32  72 N8        30.00R WCI  35
$$

KYZ024-025-028>034-038-045-046-053-271500-
NORTH CENTRAL KENTUCKY

CITY           SKY/WX    TMP DP  RH WIND       PRES   REMARKS
LOUISVILLE/SDF PTSUNNY   39  29  67 N12       30.02S WCI  32
LOUISVILLE/LOU PTSUNNY   38  29  70 N10       30.01F WCI  31
FORT KNOX      PTSUNNY   37  30  74 N12       29.99R WCI  30
$$

KYZ035>037-039>044-047>052-055>060-089>105-271500-
NORTHEAST KENTUCKY

CITY           SKY/WX    TMP DP  RH WIND       PRES   REMARKS
LEXINGTON      SUNNY     37  26  64 N15       29.97R WCI  28
COVINGTON      MOSUNNY   35  23  61 N14       29.99R WCI  26
FRANKFORT      MOSUNNY   37  25  61 N9        29.98R WCI  30
$$

KYZ054-064>069-076>088-106>120-271500-
SOUTHEAST KENTUCKY

CITY           SKY/WX    TMP DP  RH WIND       PRES   REMARKS
JACKSON        CLOUDY    38  32  79 NE8       29.94R WCI  32
LONDON         CLOUDY    40  30  67 N9        29.94R WCI  34
SOMERSET       PTSUNNY   37  32  81 NE6       29.98R WCI  33
MIDDLESBORO    CLOUDY    40  32  75 N9        29.93R WCI  33
MONTICELLO     SUNNY     43  33  67 N9        29.99R
$$




USA.gov is the U.S. government's official web portal to all federal, state and local government web resources and services.